Date,TemperatureHighF,TemperatureAvgF,TemperatureLowF,DewpointHighF,DewpointAvgF,DewpointLowF,HumidityHigh,HumidityAvg,HumidityLow,PressureMaxIn,PressureMinIn,WindSpeedMaxMPH,WindSpeedAvgMPH,GustSpeedMaxMPH,PrecipitationSumIn
2013-2-7,3.3,0.3,-2.2,-10.2,-11.3,-12.5,68,58,50,30.52,30.36,13,8,18,0.00
2013-2-8,14.3,4.1,-5.4,4.4,-3.1,-10.5,84,72,55,30.63,30.40,6,2,10,0.00
2013-2-9,22.0,17.2,8.8,20.8,14.9,4.0,95,90,78,30.41,29.68,15,11,26,0.00
2013-2-10,22.8,21.3,18.0,21.3,19.1,15.3,94,91,87,30.16,29.69,15,10,24,0.00
2013-2-12,30.0,29.8,29.4,29.3,29.0,28.5,97,97,96,29.43,29.36,9,8,12,0.33
2013-2-13,33.3,31.2,29.4,30.5,29.4,28.0,98,93,88,29.75,29.65,8,2,11,0.07
2013-2-14,30.9,28.4,23.9,28.5,25.9,22.4,95,90,82,29.96,29.71,5,2,5,0.00
2013-2-15,37.5,28.2,19.4,27.4,22.9,18.2,96,82,57,30.08,29.96,7,2,11,0.04
2013-2-16,43.1,36.2,31.0,34.8,31.1,27.0,91,82,71,30.05,29.82,6,3,8,0.01
2013-2-17,37.3,33.2,31.5,37.3,32.7,30.7,100,98,91,29.82,28.28,9,3,15,1.17
2013-2-18,32.4,25.3,21.6,32.3,23.5,18.1,100,93,84,29.41,28.32,20,14,36,0.01
2013-2-19,33.7,25.7,20.2,24.3,20.0,15.9,89,79,67,30.02,29.42,18,9,23,0.00
2013-2-20,34.9,29.8,20.7,33.4,27.4,19.0,99,91,76,30.00,29.41,9,4,13,0.01
2013-2-21,35.5,32.1,30.2,33.1,31.1,29.7,98,96,90,29.87,29.41,12,5,18,0.12
2013-2-22,30.2,26.3,23.2,29.7,23.6,17.5,98,89,78,30.36,29.87,12,8,20,0.01
2013-2-23,30.7,22.1,8.8,18.5,15.4,6.2,92,76,59,30.35,30.21,5,2,7,0.01
2013-2-24,28.3,16.2,5.0,19.1,12.3,2.0,95,85,67,30.21,29.89,3,1,8,0.02
2013-2-25,32.9,25.1,17.6,25.4,20.6,16.4,95,83,72,30.22,29.88,7,4,14,0.02
2013-2-26,33.6,21.4,11.0,22.5,16.9,8.9,96,83,62,30.39,30.21,4,1,6,0.02
2013-2-27,43.2,21.7,4.5,23.8,13.1,1.7,95,73,33,30.37,30.12,3,0,5,0.01
2013-2-28,40.0,25.9,16.2,26.7,20.7,14.5,95,83,43,30.12,29.72,6,2,9,0.00
2013-3-1,31.7,29.6,27.2,30.5,27.7,22.4,98,93,80,29.72,29.40,10,7,16,0.00
2013-3-2,35.7,32.6,31.0,34.1,32.0,30.5,99,98,93,29.49,29.37,8,4,12,0.09
2013-3-3,35.5,32.3,30.8,34.3,31.8,30.6,100,98,93,29.50,29.41,7,2,10,0.01
2013-3-4,38.8,34.1,31.5,36.5,33.3,31.5,100,97,89,29.71,29.40,4,1,9,0.50
2013-3-5,35.7,33.0,30.8,34.4,32.0,28.3,100,96,89,30.19,29.71,7,4,13,0.09
2013-3-6,34.5,31.9,30.1,29.5,27.1,24.2,92,83,66,30.43,30.19,8,4,12,0.00
2013-3-7,36.6,31.1,26.7,28.5,25.5,23.1,90,80,66,30.43,30.28,8,4,16,0.00
2013-3-8,35.1,29.1,25.3,29.5,25.6,23.2,93,86,74,30.29,30.23,9,6,17,0.00
2013-3-9,32.8,29.9,26.8,28.3,26.4,22.9,94,87,79,30.41,30.27,8,4,14,0.00
2013-3-10,38.3,30.7,25.4,28.7,25.9,23.4,93,83,65,30.45,30.33,4,1,6,0.00
2013-3-11,41.1,32.5,26.3,32.0,28.6,24.3,93,86,67,30.34,30.22,8,4,12,0.00
2013-3-12,42.4,36.2,31.2,37.5,33.5,29.1,96,90,82,30.28,30.19,9,5,15,0.00
2013-3-13,51.7,44.2,37.4,45.6,41.8,36.4,99,92,78,30.19,29.60,8,5,13,0.45
2013-3-14,44.9,38.7,30.2,44.7,33.8,25.4,100,84,51,29.61,29.46,11,6,17,0.90
2013-3-15,32.9,29.2,26.0,29.0,25.3,24.0,95,85,75,29.60,29.52,6,3,8,0.00
2013-3-16,33.5,25.8,18.1,24.9,18.1,12.8,95,74,45,29.77,29.52,11,4,15,0.02
2013-3-17,29.8,19.9,12.7,20.7,12.1,0.9,89,73,46,29.98,29.76,15,5,19,0.00
2013-3-18,23.8,15.6,8.5,8.0,2.8,-1.3,67,57,42,30.28,29.99,16,10,23,0.00
2013-3-19,26.7,19.3,13.3,15.7,11.5,6.9,85,72,60,30.33,30.00,6,3,12,0.00
2013-3-20,34.1,26.3,18.5,33.3,23.8,14.7,97,90,80,29.99,29.24,16,7,22,0.09
2013-3-21,39.3,31.9,22.9,28.6,24.6,18.5,92,75,56,29.84,29.59,11,5,15,0.00
2013-3-22,35.7,30.7,28.1,29.3,27.7,24.6,97,89,71,29.60,29.28,15,9,23,0.00
2013-3-23,34.0,29.4,24.8,28.9,24.7,20.9,95,83,67,29.41,29.34,11,5,16,0.00
2013-3-24,38.6,30.0,22.6,28.3,25.7,20.4,97,85,59,29.70,29.41,5,2,8,0.09
2013-3-25,36.9,31.2,23.7,31.4,28.9,21.5,98,91,79,29.68,29.63,8,5,11,0.04
2013-3-26,35.5,31.9,26.6,33.4,30.5,25.2,98,95,89,29.63,29.35,10,6,19,0.05
2013-3-27,36.1,33.3,31.1,33.6,31.8,30.1,100,94,86,29.77,29.47,8,6,13,0.15
2013-3-28,40.2,35.4,27.9,31.7,29.8,25.3,91,80,67,29.86,29.76,6,3,11,0.00
2013-3-29,38.8,32.0,23.2,27.4,24.5,19.6,88,74,55,29.94,29.84,9,4,12,0.00
2013-3-30,41.1,29.5,16.8,25.3,19.7,14.4,96,69,42,30.04,29.92,7,2,9,0.00
2013-3-31,45.4,31.8,16.2,24.5,17.3,12.8,89,59,30,30.13,30.04,4,1,7,0.00
2013-4-1,41.8,34.9,28.8,39.2,32.1,21.3,99,90,67,30.08,29.53,9,3,19,0.06
2013-4-2,38.3,33.8,26.8,38.0,30.2,19.3,99,87,61,29.67,29.45,14,7,27,0.06
2013-4-3,30.8,26.5,22.0,22.6,15.6,8.2,84,63,52,29.72,29.60,17,10,20,0.00
2013-4-4,42.5,33.1,26.3,25.3,18.3,10.7,75,57,28,29.99,29.72,16,9,24,0.00
2013-4-5,48.5,39.4,32.5,38.4,31.5,25.1,97,74,50,29.99,29.60,9,6,14,0.14
2013-4-6,38.4,33.3,27.9,37.6,25.8,12.1,98,76,41,30.17,29.48,16,9,25,0.06
2013-4-7,40.3,31.9,24.0,23.0,15.2,8.2,68,51,28,30.34,30.10,10,4,14,0.00
2013-4-8,48.5,37.8,31.3,42.4,32.6,21.8,97,82,61,30.16,29.93,10,4,14,0.00
2013-4-9,38.4,33.4,30.4,33.1,31.3,29.4,98,92,75,30.17,29.99,4,1,5,0.02
2013-4-10,47.0,36.0,31.1,39.8,33.9,30.3,99,93,71,30.01,29.85,9,2,11,0.01
2013-4-11,42.1,36.2,31.5,33.5,25.0,17.1,98,67,37,30.04,29.81,14,6,16,0.00
2013-4-12,39.0,33.8,29.3,32.3,26.4,21.6,96,75,56,30.24,30.05,9,4,13,0.00
2013-4-13,36.2,33.3,31.9,35.2,32.6,31.1,98,97,95,30.15,29.80,7,3,10,0.20
2013-4-14,38.1,34.4,32.1,37.0,33.5,31.5,99,97,92,30.13,29.92,3,1,7,0.13
2013-4-15,49.4,38.2,29.7,33.4,30.4,26.1,99,76,46,30.42,30.13,7,2,10,0.01
2013-4-16,54.9,40.5,27.3,37.1,31.4,24.8,93,72,41,30.44,29.95,11,5,15,0.00
2013-4-17,42.7,40.6,38.8,42.1,39.3,35.9,99,95,85,29.95,29.78,17,10,25,0.31
2013-4-20,62.1,53.2,43.5,59.7,51.1,40.9,97,92,80,29.98,29.63,19,10,24,0.06
2013-4-21,43.5,37.5,26.4,41.4,28.8,18.5,95,71,51,30.66,29.98,8,4,16,0.00
2013-4-22,46.3,34.3,20.4,27.4,21.6,17.9,92,63,35,30.87,30.67,5,1,9,0.00
2013-4-23,51.7,39.1,27.1,38.1,27.3,19.6,95,66,34,30.79,30.49,7,3,11,0.07
2013-4-24,55.2,47.6,38.8,54.8,47.1,37.6,100,98,94,30.49,29.93,9,5,15,0.25
2013-4-25,61.9,51.5,44.6,54.3,48.7,43.1,99,91,73,30.22,29.91,13,7,15,0.09
2013-4-26,48.4,39.8,34.6,48.4,34.9,31.5,100,83,74,30.45,30.22,8,6,14,0.01
2013-4-27,43.2,36.6,29.2,37.5,34.2,28.2,97,91,77,30.39,30.33,9,5,13,0.00
2013-4-28,54.0,40.7,27.6,35.6,31.2,26.9,99,72,43,30.36,30.28,8,3,13,0.00
2013-4-29,54.3,40.7,29.1,46.8,37.0,26.6,98,87,68,30.33,30.27,8,3,11,0.00
2013-4-30,58.7,47.7,39.5,50.1,43.8,38.7,99,87,65,30.44,30.33,5,1,8,0.00
2013-5-1,61.8,47.3,35.7,48.4,41.4,34.9,99,82,50,30.50,30.43,6,2,10,0.00
2013-5-2,47.4,41.2,36.1,40.6,37.5,35.1,99,87,73,30.58,30.47,11,6,15,0.00
2013-5-3,51.1,41.8,34.3,42.5,36.8,32.2,99,84,57,30.58,30.48,8,4,15,0.00
2013-5-4,54.2,42.7,29.4,39.6,35.0,28.2,100,76,53,30.48,30.34,5,1,9,0.00
2013-5-5,67.6,51.6,35.2,45.1,38.3,33.0,93,64,34,30.35,30.19,9,4,13,0.00
2013-5-6,63.6,48.6,41.3,42.5,38.4,36.5,85,69,43,30.26,30.21,10,5,15,0.00
2013-5-14,47.2,44.2,41.2,43.5,40.7,39.6,96,88,77,30.00,29.79,8,4,12,0.18
2013-5-15,41.6,40.9,40.6,40.3,40.0,39.8,97,96,95,29.81,29.73,8,6,12,0.11
2013-5-20,56.7,49.3,33.8,45.2,39.6,33.2,98,71,43,30.28,30.08,6,2,8,0.01
2013-5-21,57.0,48.8,44.9,52.4,47.5,44.4,100,95,82,30.08,30.02,8,3,11,0.06
2013-5-22,57.0,50.4,43.8,51.7,47.8,43.4,100,91,75,30.13,30.06,3,1,6,0.01
2013-5-23,63.9,54.8,46.1,61.6,52.0,43.7,97,91,83,30.10,29.88,12,5,22,0.00
2013-5-24,72.2,64.2,59.9,65.1,61.0,58.7,99,90,73,29.92,29.83,12,8,17,0.00
2013-5-25,62.1,51.5,43.6,60.4,51.0,43.3,100,98,92,30.00,29.83,10,4,12,0.28
2013-5-26,63.3,55.3,46.1,57.5,49.8,42.1,100,83,56,29.90,29.81,13,6,16,0.07
2013-5-27,53.5,48.5,45.2,47.4,44.6,42.3,97,87,69,30.04,29.80,10,5,13,0.02
2013-5-28,54.7,47.4,38.5,44.5,40.3,34.0,99,78,48,30.32,30.04,7,3,12,0.00
2013-5-29,70.2,53.9,37.7,49.5,41.4,35.0,96,67,35,30.36,30.18,7,2,9,0.00
2013-5-30,61.2,56.4,52.2,59.2,55.3,49.7,100,96,82,30.18,29.91,7,3,9,0.23
2013-5-31,78.5,66.1,54.3,67.5,60.0,54.0,100,82,55,29.97,29.78,15,6,25,0.02
2013-6-1,66.5,57.7,47.0,64.5,51.5,44.3,100,82,47,29.99,29.80,7,2,9,0.17
2013-6-2,76.4,57.8,46.1,67.7,55.5,45.4,100,93,71,29.93,29.79,10,2,17,0.00
2013-6-3,68.3,62.7,59.2,64.6,61.1,58.1,100,95,85,29.81,29.71,12,7,17,0.15
2013-6-4,70.5,59.8,46.1,61.8,53.7,43.3,100,83,44,29.83,29.62,12,5,16,0.00
2013-6-5,65.0,54.5,45.6,46.7,43.8,40.1,90,69,43,30.04,29.82,10,4,15,0.00
2013-6-6,65.3,53.9,42.0,47.0,39.8,33.0,84,61,40,30.22,30.04,7,3,9,0.00
2013-6-7,67.3,58.6,50.9,52.6,47.7,41.8,86,68,45,30.23,30.16,5,1,10,0.00
2013-6-8,55.8,51.1,49.0,52.2,49.6,44.7,100,95,72,30.18,29.72,7,3,21,1.35
2013-6-9,57.6,49.7,46.3,52.8,47.6,44.4,100,93,73,30.12,29.80,7,3,10,0.04
2013-6-10,69.1,56.6,46.3,55.8,51.1,45.5,100,83,56,30.16,30.03,9,3,14,0.03
2013-6-11,69.0,60.2,52.7,58.3,53.5,50.1,92,79,59,30.04,29.81,8,3,10,0.00
2013-6-12,59.3,54.8,50.0,55.7,53.1,49.7,100,94,84,29.81,29.67,5,2,8,0.47
2013-6-13,54.6,50.4,47.6,49.7,47.6,44.7,100,90,79,29.77,29.63,9,5,16,0.12
2013-6-14,58.1,52.3,47.5,52.7,49.5,46.2,98,90,78,29.76,29.69,3,0,4,0.00
2013-6-15,71.5,57.1,41.5,58.4,49.4,41.0,100,79,38,29.72,29.66,9,3,14,0.00
2013-6-16,70.2,60.4,50.8,52.0,44.5,33.8,90,59,32,29.88,29.72,12,5,17,0.03
2013-6-17,70.1,60.8,51.7,60.8,56.4,50.2,99,86,67,29.89,29.75,6,2,12,0.03
2013-6-18,72.3,63.4,54.2,60.4,55.1,49.9,97,76,51,29.92,29.79,12,4,15,0.00
2013-6-19,67.4,57.6,48.2,56.8,51.1,46.6,98,80,56,30.03,29.90,6,1,9,0.00
2013-6-20,75.5,61.2,43.1,56.3,47.5,40.3,100,66,30,30.21,30.03,7,4,14,0.00
2013-6-21,72.9,61.7,55.4,61.0,54.4,46.9,92,77,59,30.20,30.11,12,5,18,0.02
2013-6-22,73.4,64.0,51.9,58.1,53.3,44.6,99,72,39,30.18,30.04,10,4,12,0.00
2013-6-23,80.6,67.0,57.8,65.3,60.1,55.2,100,81,42,30.12,29.96,11,5,13,0.10
2013-6-24,75.4,66.0,59.4,69.6,63.6,59.4,100,93,76,29.95,29.72,9,5,13,0.00
2013-6-25,84.5,71.7,64.4,71.6,66.5,63.3,98,85,62,29.76,29.69,6,2,9,0.01
2013-6-26,66.4,56.1,51.1,64.9,54.7,49.5,99,95,90,29.92,29.67,7,4,11,0.00
2013-6-27,61.3,55.1,50.9,59.0,54.1,49.6,98,96,90,30.02,29.87,4,2,8,0.03
2013-6-28,60.8,55.3,52.2,58.8,54.6,51.7,100,97,92,30.02,29.84,5,2,9,0.50
2013-6-29,74.8,67.3,55.8,72.3,66.2,55.8,100,96,89,29.84,29.74,8,4,12,0.05
2013-6-30,75.2,67.7,64.3,70.8,66.5,64.3,100,96,83,29.96,29.76,13,6,17,0.09
2013-7-1,74.7,67.2,63.8,69.9,66.0,63.8,100,96,83,30.12,29.95,10,6,13,0.00
2013-7-2,66.7,61.9,57.0,65.3,53.7,49.7,98,75,65,30.30,30.13,5,1,9,0.00
2013-7-4,87.3,78.9,70.0,68.5,64.9,59.2,82,64,39,29.97,29.94,9,6,12,0.00
2013-7-5,87.1,76.4,66.8,74.3,67.9,63.1,91,76,58,29.96,29.85,9,4,15,0.00
2013-7-6,84.5,75.8,69.4,72.7,67.8,63.0,92,77,60,29.90,29.78,9,4,10,0.00
2013-7-7,86.8,73.8,62.5,72.8,67.1,59.2,95,81,54,29.88,29.77,9,4,12,0.18
2013-7-8,76.7,64.5,54.6,62.7,57.0,52.6,95,78,47,30.10,29.88,4,1,7,0.00
2013-7-9,72.6,62.2,49.4,58.5,52.8,48.3,100,74,48,30.20,30.10,3,1,5,0.00
2013-7-10,76.1,64.6,53.0,62.7,56.7,51.7,98,77,50,30.16,29.95,5,2,8,0.00
2013-7-11,77.7,69.4,62.3,74.1,67.8,60.3,100,95,86,29.95,29.79,7,4,10,0.12
2013-7-12,72.1,67.0,52.9,68.8,58.9,51.3,99,76,58,30.21,29.89,6,3,11,0.00
2013-7-13,52.8,49.1,45.8,51.7,48.4,45.3,99,97,95,30.27,30.21,0,0,2,0.00
2013-7-15,91.0,83.6,73.7,68.3,65.3,61.2,72,55,38,30.00,29.95,8,5,13,0.00
2013-7-16,74.7,69.1,54.6,64.1,57.7,49.1,90,69,46,30.23,30.00,7,3,13,0.00
2013-7-17,78.6,63.7,47.9,62.5,54.6,46.7,99,75,43,30.24,29.93,11,3,16,0.04
2013-7-18,78.1,69.3,57.5,70.8,62.1,50.8,100,80,42,30.02,29.83,12,5,15,0.35
2013-7-19,71.0,62.9,53.1,69.5,60.2,50.8,99,91,76,30.02,29.57,9,2,11,0.11
2013-7-20,84.3,74.5,67.8,73.4,68.6,65.9,98,83,63,29.59,29.51,14,9,19,0.01
2013-7-21,72.8,66.2,57.4,66.9,55.4,47.6,97,70,42,29.99,29.57,10,5,13,0.00
2013-7-22,77.4,64.7,52.6,60.2,54.1,47.0,99,72,41,30.06,29.98,7,2,12,0.00
2013-7-23,72.4,64.5,57.4,69.2,58.6,53.1,100,82,53,30.02,29.55,5,2,8,2.06
2013-7-24,77.6,70.9,66.3,71.5,68.9,66.3,100,94,78,29.84,29.52,11,5,16,0.02
2013-7-25,69.6,64.4,60.4,67.5,61.0,57.9,98,89,82,30.23,29.84,6,2,10,0.00
2013-7-26,82.6,70.9,62.0,77.9,68.9,61.5,100,94,79,30.23,30.02,7,2,11,1.66
2013-7-27,74.3,68.9,62.1,72.3,66.8,61.8,100,93,82,30.01,29.85,10,5,15,0.02
2013-7-28,67.0,62.5,57.0,63.0,60.1,56.2,100,92,80,30.16,29.96,6,2,8,0.01
2013-7-29,73.6,65.2,57.0,70.5,64.1,56.4,100,96,85,30.16,30.06,5,2,9,0.17
2013-7-30,76.6,69.5,64.5,70.4,67.4,64.5,100,93,78,30.08,29.95,5,2,7,0.00
2013-8-4,75.6,69.9,62.1,64.3,61.7,59.3,92,76,59,29.75,29.69,6,3,9,0.01
2013-8-5,73.0,63.0,56.5,65.7,60.2,54.5,100,91,67,29.79,29.68,6,2,10,0.46
2013-8-6,74.6,64.3,58.4,61.6,58.2,55.2,99,82,54,30.12,29.79,9,5,15,0.02
2013-8-7,79.8,67.3,55.0,64.2,57.3,52.9,99,74,40,30.19,30.11,7,2,10,0.00
2013-8-8,76.4,65.5,53.7,62.8,57.7,52.7,100,78,49,30.18,30.11,6,1,11,0.01
2013-8-9,72.8,67.1,63.8,69.7,65.5,57.9,100,95,78,30.12,29.93,8,3,10,1.44
2013-8-10,76.6,68.8,63.6,71.7,64.8,53.2,100,88,64,29.93,29.64,14,7,18,0.28
2013-8-11,73.9,65.5,58.2,58.7,54.6,48.5,90,69,44,29.89,29.78,12,6,22,0.00
2013-8-12,75.8,66.4,58.1,64.3,58.3,54.8,97,76,55,29.92,29.87,11,5,15,0.00
2013-8-13,77.5,67.0,59.8,65.8,60.8,56.2,94,81,62,29.92,29.77,9,3,13,0.00
2013-8-14,76.8,67.9,63.1,70.6,65.2,61.6,100,92,74,29.78,29.54,12,2,17,0.01
2013-8-15,72.8,64.3,57.8,61.5,55.9,50.2,96,76,49,30.02,29.60,12,8,20,0.00
2013-8-16,76.8,66.0,56.7,63.4,59.1,56.0,99,80,52,30.18,30.02,5,2,8,0.00
2013-8-17,76.2,64.3,55.3,62.8,58.2,52.8,99,82,45,30.22,30.17,7,3,11,0.00
2013-8-18,75.3,64.5,52.6,62.2,56.5,52.3,100,78,49,30.22,29.98,12,5,17,0.00
2013-8-19,76.5,67.3,60.6,66.5,61.5,57.8,96,82,63,29.98,29.72,13,6,20,0.00
2013-8-20,73.1,62.7,55.1,66.1,59.8,54.8,100,91,76,30.11,29.82,4,1,8,0.00
2013-8-21,80.9,69.4,58.7,69.3,63.4,57.0,100,83,60,30.10,29.95,10,4,14,0.00
2013-8-22,81.6,72.7,66.0,70.6,64.6,61.7,86,76,64,29.96,29.76,12,8,20,0.00
2013-8-23,69.3,64.3,55.2,65.9,60.1,53.4,97,86,76,30.03,29.66,11,3,15,0.02
2013-8-24,69.8,58.2,46.0,55.6,49.9,44.4,97,76,48,30.26,30.03,6,2,11,0.00
2013-8-25,77.6,59.9,41.4,61.7,50.7,40.6,100,76,38,30.28,30.16,6,1,9,0.00
2013-8-26,70.8,61.6,52.6,62.0,57.5,51.5,99,87,62,30.15,29.85,8,2,9,0.02
2013-8-27,76.6,66.7,62.1,68.3,64.1,61.6,99,92,66,29.91,29.82,7,3,11,0.01
2013-8-28,77.8,66.3,60.9,68.3,63.2,59.8,100,91,66,30.08,29.88,5,2,10,0.00
2013-8-29,64.2,60.8,56.9,60.7,58.4,55.5,97,92,84,30.13,29.93,7,4,12,0.00
2013-8-30,62.6,58.1,52.2,59.2,56.1,50.5,98,93,77,29.92,29.69,10,6,18,0.17
2013-8-31,74.3,64.4,51.9,64.1,58.7,50.5,100,84,61,29.91,29.69,5,1,8,0.01
2013-9-1,70.9,64.9,61.1,68.7,64.3,60.5,100,98,90,30.00,29.82,5,2,11,0.09
2013-9-2,63.9,61.3,59.1,62.5,59.5,57.3,100,94,84,30.13,30.00,5,3,13,0.04
2013-9-3,71.0,66.1,61.4,71.0,66.1,61.1,100,100,99,30.02,29.75,8,4,11,1.74
2013-9-4,72.4,67.8,63.7,68.8,66.5,62.5,100,96,84,29.78,29.67,10,4,14,0.03
2013-9-5,64.2,54.2,45.8,62.6,50.9,44.8,100,89,74,30.01,29.78,6,1,8,0.17
2013-9-6,61.8,52.5,42.1,50.0,45.9,41.0,99,80,57,30.09,29.99,10,5,16,0.00
2013-9-7,71.1,61.1,53.5,58.4,53.1,48.8,93,76,54,29.99,29.75,13,8,18,0.00
2013-9-8,61.4,56.4,47.0,59.5,54.9,43.9,100,95,77,29.75,29.51,14,5,28,1.05
2013-9-9,61.5,53.3,45.6,49.4,45.2,39.8,92,75,49,30.08,29.74,13,8,17,0.00
2013-9-10,63.8,59.2,53.7,58.7,55.8,49.3,94,89,81,30.16,30.06,11,7,16,0.00
2013-9-11,71.7,65.6,59.0,69.6,64.0,57.9,100,95,85,30.16,29.86,11,4,17,0.07
2013-9-12,74.0,69.0,64.8,70.3,67.1,64.2,100,94,83,29.92,29.75,12,5,17,0.11
2013-9-13,69.8,67.9,64.5,69.7,67.4,63.0,100,98,93,29.75,29.61,7,3,11,1.50
2013-9-14,72.2,67.2,61.0,69.7,66.2,60.1,100,97,89,29.88,29.61,6,2,12,0.02
2013-9-15,66.5,59.5,53.5,60.3,54.8,50.9,97,85,69,30.00,29.88,10,6,14,0.00
2013-9-16,64.7,56.2,47.5,57.9,53.4,43.8,95,91,75,30.05,29.91,8,4,14,0.11
2013-9-17,61.5,51.1,42.0,48.8,43.3,39.2,93,76,48,30.22,30.05,8,4,11,0.01
2013-9-18,66.3,56.8,49.4,53.7,49.2,44.6,95,76,55,30.19,29.98,10,5,15,0.00
2013-9-19,72.6,60.1,48.8,56.8,52.1,46.9,97,77,45,30.00,29.93,8,4,11,0.00
2013-9-20,57.7,53.9,46.2,55.3,50.2,42.6,96,87,75,30.20,29.95,6,2,11,0.00
2013-9-21,71.0,59.7,46.1,61.0,54.8,43.3,95,85,67,30.18,29.93,9,4,12,0.00
2013-9-22,75.9,66.7,58.4,67.7,62.2,56.5,97,86,70,29.93,29.64,9,6,14,0.00
2013-9-23,68.6,58.6,49.0,65.7,56.3,45.0,99,92,82,29.65,29.55,10,6,15,0.40
2013-9-24,53.8,50.0,47.1,48.0,46.1,43.9,95,87,74,29.75,29.63,8,4,13,0.00
2013-9-25,56.8,51.9,47.9,53.5,50.1,47.1,99,94,82,29.77,29.71,4,2,10,0.19
2013-9-26,55.3,53.5,51.9,54.5,52.5,50.3,98,96,94,30.00,29.76,9,6,18,0.43
2013-9-27,60.0,52.8,41.8,52.5,48.7,40.3,95,86,72,30.22,30.00,9,4,13,0.00
2013-9-28,70.2,54.8,39.2,56.3,48.3,38.2,100,81,45,30.29,30.22,7,2,12,0.00
2013-9-29,71.9,60.7,53.0,60.4,52.6,46.8,89,76,56,30.22,30.11,10,4,12,0.00
2013-9-30,69.3,58.2,48.7,55.8,51.3,46.7,98,79,49,30.13,30.02,4,1,6,0.00
2013-10-1,66.0,56.9,52.8,55.5,52.9,48.8,96,87,54,30.02,29.77,3,0,5,0.16
2013-10-2,69.7,58.5,47.5,61.6,55.1,46.7,99,89,73,29.77,29.58,13,4,24,0.02
2013-10-3,66.3,59.0,52.9,55.9,48.4,44.1,92,69,51,29.90,29.65,13,7,21,0.00
2013-10-4,60.2,53.1,43.8,47.3,42.8,38.8,86,69,47,30.00,29.87,13,6,19,0.00
2013-10-5,43.8,42.5,41.0,41.2,40.4,38.6,95,92,86,30.05,30.00,4,2,4,0.00
2013-10-6,57.2,48.5,36.3,45.2,40.8,34.5,94,76,58,30.34,30.23,6,2,8,0.00
2013-10-7,60.3,49.0,34.6,55.8,45.8,33.1,99,89,78,30.34,30.06,8,3,11,0.00
2013-10-8,64.7,57.4,44.7,62.2,52.0,38.9,96,83,63,30.27,29.85,14,7,19,0.31
2013-10-9,60.1,48.8,38.5,47.6,41.6,35.8,94,78,52,30.41,30.27,8,3,13,0.00
2013-10-10,64.9,55.5,49.4,51.4,48.9,46.6,92,79,56,30.32,30.14,11,7,17,0.00
2013-10-11,60.0,51.7,43.2,55.0,48.4,40.2,97,89,79,30.28,30.13,7,2,11,0.00
2013-10-12,48.5,41.7,29.8,40.2,35.9,27.8,95,81,64,30.45,30.28,6,2,12,0.00
2013-10-13,54.8,39.9,28.2,41.7,34.6,26.4,97,83,53,30.47,30.38,4,1,9,0.00
2013-10-14,61.1,47.2,29.8,51.3,42.7,28.0,99,86,62,30.38,30.19,10,4,14,0.01
2013-10-15,60.9,51.2,34.2,52.6,45.5,31.8,95,82,53,30.32,30.16,7,4,10,0.01
2013-10-16,59.5,46.1,31.1,52.5,41.7,29.5,98,86,61,30.32,30.04,5,1,6,0.27
2013-10-17,68.5,58.9,53.3,64.1,57.1,52.5,99,94,81,30.04,29.69,12,4,14,0.19
2013-10-18,59.0,54.7,52.5,54.8,52.5,51.0,96,92,81,29.72,29.58,13,4,18,0.09
2013-10-19,57.3,51.3,43.1,51.4,46.2,40.7,96,83,63,29.88,29.61,13,6,24,0.01
2013-10-20,58.8,50.3,42.9,52.6,47.0,40.7,97,89,66,29.88,29.63,10,2,14,0.22
2013-10-21,48.1,46.2,42.7,44.7,40.8,38.2,90,82,75,30.02,29.72,12,5,20,0.00
2013-10-22,57.9,47.6,35.2,49.9,42.6,33.6,98,84,53,30.05,29.73,7,2,11,0.06
2013-10-23,56.0,47.7,37.0,51.3,42.4,34.3,97,83,55,29.72,29.53,9,3,11,0.51
2013-10-24,48.7,42.8,37.2,38.4,32.9,25.0,94,69,51,29.60,29.46,15,7,22,0.00
2013-10-25,48.8,42.5,37.7,37.7,33.8,28.9,81,71,57,29.89,29.59,14,7,20,0.00
2013-10-26,46.4,41.5,35.2,38.0,34.3,30.7,89,76,62,30.01,29.89,10,5,13,0.01
2013-10-27,46.1,41.8,38.3,44.7,39.9,36.6,96,93,87,29.99,29.73,10,2,14,0.28
2013-10-28,45.9,41.7,34.5,40.2,36.1,30.5,93,81,57,30.15,29.81,13,7,17,0.02
2013-10-29,42.2,35.0,28.2,32.6,28.1,23.3,87,76,58,30.37,30.15,11,4,15,0.00
2013-10-30,44.1,33.2,23.3,35.7,25.6,19.2,90,74,44,30.35,30.11,11,3,15,0.00
2013-10-31,44.8,37.9,28.4,42.4,29.2,22.6,94,71,50,30.24,29.94,9,4,13,0.15
2013-11-1,63.9,58.3,44.1,60.9,56.0,42.5,96,92,82,29.94,29.34,18,9,27,0.42
2013-11-2,61.0,53.6,46.2,55.6,47.0,41.3,88,79,65,29.71,29.37,13,7,21,0.00
2013-11-3,46.1,37.9,30.9,41.2,29.7,26.0,83,73,63,30.20,29.69,9,4,12,0.00
2013-11-4,40.9,35.8,30.4,35.2,28.9,24.8,85,76,70,30.66,30.20,7,3,9,0.02
2013-11-5,42.3,35.3,30.1,32.3,27.7,24.1,89,74,52,30.72,30.53,8,2,11,0.01
2013-11-6,50.4,43.3,33.6,42.9,38.2,28.4,88,82,73,30.54,30.05,11,5,21,0.00
2013-11-7,56.7,52.0,45.9,54.6,49.0,42.3,96,90,81,30.05,29.53,12,7,23,0.28
2013-11-8,46.5,38.9,33.3,44.9,32.4,29.4,95,78,65,29.66,29.54,11,6,15,0.06
2013-11-9,37.5,35.1,32.0,30.6,28.5,25.0,92,77,65,30.04,29.66,14,8,25,0.00
2013-11-10,40.4,35.5,27.6,37.5,30.6,25.3,94,83,64,30.07,29.71,6,2,9,0.15
2013-11-11,42.4,39.8,36.5,40.5,38.2,34.9,95,94,91,29.89,29.60,10,4,14,0.94
2013-11-12,41.2,34.7,28.0,39.6,31.9,21.6,95,89,76,29.90,29.76,12,6,17,0.13
2013-11-13,31.6,28.3,25.0,22.9,20.8,17.7,82,74,65,30.00,29.85,13,7,19,0.00
2013-11-14,40.3,32.9,23.9,32.7,25.9,17.7,82,75,69,30.01,29.89,12,6,15,0.00
2013-11-15,49.3,41.7,37.9,41.5,36.0,31.0,94,80,73,30.19,30.01,7,3,11,0.00
2013-11-16,48.6,40.8,34.7,43.6,37.5,33.4,97,89,67,30.35,30.18,2,0,4,0.00
2013-11-17,47.7,36.8,28.7,43.4,35.0,27.4,98,93,84,30.41,30.23,3,0,5,0.00
2013-11-18,56.7,47.0,38.7,55.3,45.6,37.9,97,95,90,30.22,29.53,12,5,22,0.54
2013-11-19,52.2,42.9,33.0,51.0,37.7,24.8,97,82,60,29.79,29.51,12,6,16,0.00
2013-11-20,32.9,29.2,26.1,25.2,22.5,18.9,90,76,62,30.33,29.79,14,11,22,0.00
2013-11-21,41.6,34.2,28.6,31.3,24.8,19.7,86,69,52,30.35,30.24,13,8,17,0.00
2013-11-22,48.2,35.4,28.1,38.2,31.3,26.1,94,85,64,30.24,29.76,6,2,8,0.00
2013-11-23,36.4,32.3,28.3,33.7,28.1,17.5,95,85,62,29.76,29.34,16,6,22,0.06
2013-11-24,28.7,22.5,19.4,17.7,14.0,8.1,90,70,52,29.46,29.33,17,13,25,0.00
2013-11-25,25.6,22.6,20.2,18.1,15.9,11.3,88,75,64,30.24,29.47,14,9,22,0.00
2013-11-26,35.6,28.1,19.7,33.5,22.5,10.6,92,79,59,30.37,30.23,7,3,8,0.00
2013-11-27,56.5,42.2,27.8,55.1,40.5,24.9,96,94,88,30.35,29.35,12,5,22,0.36
2013-11-28,58.9,37.5,24.1,56.6,32.5,16.7,94,82,71,30.13,29.25,16,13,22,0.03
2013-11-29,24.0,21.5,20.1,17.3,15.2,12.4,85,76,69,30.51,30.13,11,7,21,0.00
2013-11-30,28.7,21.9,14.6,18.1,14.5,9.9,86,73,49,30.69,30.52,9,5,15,0.01
2013-12-1,33.7,30.6,25.7,31.4,28.4,20.8,95,92,78,30.45,30.26,9,4,11,0.00
2013-12-2,38.4,35.7,31.1,36.7,34.5,29.6,97,95,93,30.26,30.00,4,1,8,0.09
2013-12-3,42.6,39.2,37.2,42.1,38.5,36.4,98,97,96,30.00,29.48,10,2,17,0.50
2013-12-4,40.0,32.8,28.9,39.2,31.4,27.3,97,95,93,30.04,29.28,17,6,22,1.25
2013-12-5,34.9,30.7,28.5,31.7,27.9,26.2,93,89,78,30.31,30.04,6,2,9,0.12
2013-12-6,44.9,38.9,34.3,44.4,37.6,31.9,98,95,91,30.09,29.78,8,4,10,0.32
2013-12-7,35.2,31.2,24.4,32.8,23.1,14.3,91,72,55,30.12,29.92,12,6,15,0.00
2013-12-8,26.4,22.1,17.1,16.0,13.1,6.3,79,68,57,30.46,30.12,14,9,20,0.00
2013-12-9,26.9,20.0,13.2,23.7,14.1,6.0,92,78,61,30.50,29.92,8,3,15,0.00
2013-12-10,32.4,28.7,24.7,29.7,25.0,19.7,95,86,75,29.92,29.57,11,4,13,0.01
2013-12-11,24.5,19.3,14.3,19.8,10.3,6.9,86,68,56,29.96,29.58,14,10,20,0.00
2013-12-12,19.7,7.3,2.8,10.8,-0.6,-3.6,81,70,63,30.04,29.94,14,8,20,0.00
2013-12-13,16.9,7.9,0.6,13.9,3.6,-3.4,89,82,72,30.12,29.76,12,5,14,0.00
2013-12-14,7.0,2.9,-1.9,1.4,-2.4,-5.8,85,78,69,30.56,30.12,14,7,17,0.00
2013-12-15,29.4,16.7,2.7,28.1,14.0,-1.5,95,89,81,30.57,29.20,11,4,18,0.00
2013-12-16,28.6,21.9,14.5,27.1,19.6,11.3,94,91,85,29.80,29.29,14,7,21,0.00
2013-12-17,17.3,8.2,-3.6,12.8,4.9,-6.8,89,86,80,30.34,30.17,10,3,13,0.00
2013-12-18,28.6,19.4,-3.4,27.4,17.5,-6.9,95,92,84,30.29,29.45,13,5,20,0.00
2013-12-19,24.6,19.8,15.0,22.9,17.1,12.6,93,89,83,29.98,29.64,13,7,20,0.00
2013-12-20,24.6,18.7,15.7,22.9,16.1,12.5,93,89,87,30.23,29.98,8,4,11,0.00
2013-12-21,34.7,30.1,24.7,33.9,28.9,23.0,97,95,93,30.05,29.83,8,2,8,0.00
2013-12-22,31.6,26.6,22.6,30.6,25.0,20.9,96,94,93,30.22,29.96,8,5,13,0.00
2013-12-23,31.9,27.4,22.6,31.1,26.1,20.7,97,95,92,30.26,29.97,4,2,7,0.00
2013-12-24,31.6,29.5,24.4,30.7,28.5,22.9,97,96,94,30.00,29.88,6,2,10,0.00
2013-12-25,24.4,17.1,6.7,22.7,14.7,4.1,93,90,86,30.51,29.91,7,4,10,0.00
2013-12-26,25.8,13.9,0.8,24.3,11.7,-2.1,94,90,87,30.56,30.08,5,1,6,0.00
2013-12-27,28.8,24.2,15.1,27.5,22.4,12.8,95,93,90,30.08,29.95,6,3,9,0.00
2013-12-28,30.9,21.6,12.5,28.6,19.3,10.1,93,91,88,30.06,29.83,7,4,9,0.00
2013-12-29,30.8,21.5,17.2,28.3,18.7,14.3,93,89,84,30.18,29.84,8,3,11,0.00
2013-12-30,32.8,27.8,15.7,31.5,26.1,12.0,96,93,85,29.86,29.36,12,3,20,0.00
2013-12-31,9.8,2.9,-1.9,4.9,-0.7,-5.1,87,84,78,30.09,29.99,7,4,12,0.00
2014-1-1,6.1,1.8,-2.8,2.3,-2.0,-6.0,88,84,80,30.29,29.99,9,5,12,0.00
2014-1-2,-1.3,-8.3,-13.8,-6.0,-13.1,-18.6,86,79,73,30.47,30.22,11,6,15,0.00